Location: Armidale
(30.5016°S, 151.6662°E)
Time: 08:28:35
(UTC+10:00)

N. Korean satellite - Pass Details

Date: 19 May 2021
Orbit: 450 x 500 km, 97.2° (Epoch: 18 June)

Event Time Altitude Azimuth Distance (km) Brightness Sun altitude
Rises 04:20:47 0° 21° (NNE) 2,476 10.5 -28.6°
Reaches altitude 10° 04:22:49 10° 25° (NNE) 1,618 9.6 -28.2°
Enters shadow 04:23:31 15° 28° (NNE) 1,332 9.1 -28.0°
